DECAYED

OBJECT XK, 65731 (Decayed)

Orbit data source: Space-Track

You're viewing an uncataloged RSO

Recently launched and/or uncataloged RSOs may have evolving metadata. Metadata may include the following, but is not limited to: Owner, Manufacturer, Bus, Motor, and Mission.

OBJECT XK, 65731 was a Japanese satellite in LEO that was delivered to and deployed from the ISS. Unknown objects in Earth's orbit typically refer to objects detected orbiting the Earth but have not yet been identified or cataloged. These objects could be anything from previously untracked satellites, spent rocket stages, debris from satellite collisions, or even natural meteoroids temporarily captured by Earth's gravity. This object's orbit decayed before it could be identified.

Not visible in the next 10 days
Identifier
65731, 1998-067XK
Orbit
Decayed
Country
Flag of JPJP / JPN
Related business
None
Manufacturer
Unknown
Mission
Decayed Amateur Technology
Bus & Motor
Unknown
Mass
Unknown
Launch date (UTC)
1998-11-20 (28 years ago)
Launch vehicle
FALCON 9
Launch site
Tyuratam Missile And Space Complex (TTMTR)
Object type
Unknown
Shape & HBR
Box + 1 Tether, 5.0 m
Radar Cross Section
0.015 m², Medium (>0.1 m² and < 1m²)

Expand to show TLE details & history
Last TLE update: 6 months ago

TLE from 6 months ago
0 OBJECT XK
1 65731U 98067XK  26068.92741765  .09286799  12338-4  75526-3 0  9994
2 65731  51.6052  44.2508 0002463 211.8091 148.2786 16.39072868 26940
Epoch: 2026-03-09T22:15Z
TLE epoch observation values (Epoch: 2026-03-09T22:15:28.884Z)
Latitude
-0.00009°
Longitude
-97.23296°
Altitude
170.407 km
Speed
7.805 km/s
True Right ascension
02h 57m 00s
True Declination
0° 00' 00"
Sunlit
Object was in daylight at epoch
Visualization orbit readout
Latitude
Unknown
Longitude
Unknown
Altitude
Unknown
Speed
Unknown
Apparent Right ascension
Unknown
Apparent Declination
Unknown
Sunlit
N/A
Visualization observer readout
Local Sidereal Time
08:49:19
Azimuth
Unknown
Elevation
Unknown
Doppler factor
Unknown
Orbital elements
Apogee altitude
170.415 km
Perigee altitude
167.19 km
Semi-major axis
6,546.94 km
Eccentricity
0.00025
Inclination
51.6052°
RAAN
44.2508°
Arg. of periapsis
211.8091°
True anomaly
148.29344°
Mean anomaly
148.2786°
Eccentric anomaly
148.28602°
Mean motion
4.09719 °/min
Orbital period
87.87 mins
BSTAR
0.00075526
Loading maneuver chart data...
Computing Atmospheric mass density...

Documentation

Showing up to 5 results
|